Weather History for KFLL - November, 2013

Change the Weather History Date:

Thursday, November 14, 2013

  Actual Average Record
Temperature  
Mean Temperature 74 °F 76 °F  
Max Temperature 77 °F 82 °F 87 °F (1951)
Min Temperature 70 °F 70 °F 43 °F (1968)
Degree Days  
Heating Degree Days 0 0  
Month to date heating degree days 0 0  
Since 1 July heating degree days 0 0  
Cooling Degree Days 9 11  
Month to date cooling degree days 179 165  
Year to date cooling degree days 4206 4359  
Growing Degree Days 24 (Base 50)    
Moisture  
Dew Point 58 °F    
Average Humidity 61    
Maximum Humidity 68    
Minimum Humidity 53    
Precipitation  
Precipitation 0.00 in 0.10 in 1.41 in (1986)
Month to date precipitation 1.32 1.81  
Year to date precipitation 65.66 58.29  
Snow  
Snow 0.00 in - - ()
Month to date snowfall 0.0  
Since 1 July snowfall 0.0  
Since 1 September snowfall 0.0  
Snow Depth 0.00 in    
Sea Level Pressure  
Sea Level Pressure 30.17 in    
Wind  
Wind Speed 16 mph (ENE)    
Max Wind Speed 24 mph    
Max Gust Speed 33 mph    
Visibility 9 miles    
Events      
T = Trace of Precipitation, MM = Missing Value Source: NWS Daily Summary

Daily Weather History Graph

Daily Weather History Graph

Search for Another Location

Airport or City:

Trip Planner

Search our weather history database for the weather conditions in past years. The results will help you decide how hot, cold, wet, or windy it might be!

Date:

Astronomy

Nov. 14, 2013 Rise Set
Actual Time 6:38 AM EST 5:31 PM EST
Civil Twilight 6:14 AM EST 5:55 PM EST
Nautical Twilight 5:46 AM EST 6:23 PM EST
Astronomical Twilight 5:18 AM EST 6:51 PM EST
Moon 3:38 PM EST (11/14) 3:47 AM EST (11/14)
Length of Visible Light 11h 41m
Length of Day
10h 53m
Waxing Gibbous, 91% of the Moon is Illuminated
Nov 14
Waxing Gibbous
Nov 17
Full
Nov 25
Last Quarter
Dec 2
New
Dec 9
First Quarter

Hourly Weather History & Observations

Time (EST) Temp. Dew Point Humidity Pressure Visibility Wind Dir Wind Speed Gust Speed Precip Events Conditions
12:53 AM 71.1 °F 55.9 °F 59% 30.17 in 10.0 mi NE 18.4 mph 26.5 mph N/A   Overcast
1:53 AM 70.0 °F 55.0 °F 59% 30.16 in 9.0 mi ENE 18.4 mph 29.9 mph N/A   Mostly Cloudy
2:53 AM 70.0 °F 55.9 °F 61% 30.14 in 10.0 mi NE 13.8 mph 20.7 mph N/A   Mostly Cloudy
3:53 AM 71.1 °F 57.9 °F 63% 30.14 in 10.0 mi ENE 20.7 mph 25.3 mph N/A   Overcast
4:53 AM 71.1 °F 55.9 °F 59% 30.15 in 10.0 mi ENE 19.6 mph 28.8 mph N/A   Mostly Cloudy
5:53 AM 70.0 °F 55.0 °F 59% 30.16 in 10.0 mi ENE 16.1 mph 23.0 mph N/A   Partly Cloudy
6:53 AM 71.1 °F 55.9 °F 59% 30.18 in 10.0 mi ENE 15.0 mph 23.0 mph N/A   Scattered Clouds
7:53 AM 72.0 °F 57.0 °F 59% 30.20 in 10.0 mi ENE 19.6 mph 25.3 mph N/A   Mostly Cloudy
8:53 AM 73.0 °F 55.9 °F 55% 30.22 in 10.0 mi East 15.0 mph 23.0 mph N/A   Scattered Clouds
9:48 AM 73.4 °F 57.2 °F 57% 30.23 in 2.0 mi ENE 13.8 mph 21.9 mph N/A   Haze
9:53 AM 73.9 °F 57.9 °F 57% 30.23 in 2.5 mi ENE 13.8 mph 21.9 mph N/A   Haze
10:01 AM 75.2 °F 59.0 °F 57% 30.23 in 1.8 mi ENE 16.1 mph 23.0 mph N/A   Haze
10:09 AM 75.2 °F 59.0 °F 57% 30.22 in 10.0 mi ENE 16.1 mph - N/A   Mostly Cloudy
10:53 AM 75.9 °F 59.0 °F 56% 30.22 in 10.0 mi ENE 16.1 mph 21.9 mph N/A   Mostly Cloudy
11:53 AM 77.0 °F 59.0 °F 54% 30.19 in 10.0 mi East 18.4 mph 25.3 mph N/A   Scattered Clouds
12:53 PM 75.9 °F 60.1 °F 58% 30.17 in 10.0 mi ENE 15.0 mph 25.3 mph N/A   Mostly Cloudy
1:53 PM 75.0 °F 59.0 °F 57% 30.15 in 10.0 mi ENE 13.8 mph 18.4 mph N/A   Overcast
2:53 PM 75.0 °F 57.9 °F 55% 30.14 in 10.0 mi ENE 16.1 mph 23.0 mph N/A   Mostly Cloudy
3:53 PM 73.9 °F 59.0 °F 59% 30.14 in 10.0 mi ENE 12.7 mph 21.9 mph N/A   Mostly Cloudy
4:53 PM 73.0 °F 57.9 °F 59% 30.15 in 10.0 mi ENE 13.8 mph - N/A   Mostly Cloudy
5:53 PM 73.0 °F 57.0 °F 57% 30.16 in 10.0 mi ENE 15.0 mph 20.7 mph N/A   Mostly Cloudy
6:53 PM 73.0 °F 57.9 °F 59% 30.16 in 10.0 mi ENE 12.7 mph - N/A   Mostly Cloudy
7:53 PM 73.0 °F 57.0 °F 57% 30.16 in 10.0 mi ENE 18.4 mph 23.0 mph N/A   Scattered Clouds
8:53 PM 73.0 °F 57.9 °F 59% 30.16 in 10.0 mi ENE 13.8 mph - N/A   Mostly Cloudy
9:53 PM 73.0 °F 60.1 °F 64% 30.16 in 10.0 mi East 16.1 mph 24.2 mph N/A   Scattered Clouds
10:53 PM 73.9 °F 62.1 °F 66% 30.15 in 10.0 mi East 17.3 mph 24.2 mph N/A   Mostly Cloudy
11:53 PM 73.9 °F 63.0 °F 68% 30.13 in 10.0 mi East 17.3 mph 24.2 mph N/A   Mostly Cloudy